Location: Ohmer (historical)
(38.0096°N, 122.0227°W)
Time: 00:59:46
(UTC+00:00)

FALCON 9 R/B - Pass Details

Date: 14 February 2026
Orbit: 301 x 9255 km, 34.5° (Epoch: 10 March)

Event Time Altitude Azimuth Distance (km) Brightness Sun altitude
Exits shadow 12:50:59 16° 119° (ESE) 1,032 3.4 -25.8°
Drops below altitude 10° 12:51:37 10° 109° (ESE) 1,263 4.0 -25.7°
Sets 12:53:15 0° 95° (E) 1,983 5.5 -25.4°
